Location: Unspecified
(43.4680°N, 87.1740°E)
Time: 19:57:23
(UTC+00:00)

NOSS 0 Rocket - Pass Details

Date: 02 August 2021
Orbit: 936 x 954 km, 70.0° (Epoch: 22 September)

Event Time Altitude Azimuth Distance (km) Brightness Sun altitude
Rises 17:13:27 0° 332° (NNW) 3,635 8.2 -27.2°
Reaches altitude 10° 17:16:00 10° 332° (NNW) 2,684 7.3 -27.4°
Maximum altitude 17:22:14 81° 246° (WSW) 964 3.8 -27.7°
Enters shadow 17:22:40 76° 194° (SSW) 978 3.8 -27.7°
